User: anonymous   Login
Location: Unspecified
(0.0000°N, 0.0000°E)
Time: 03:48:15
(UTC+00:00)
Language:

LANDSAT 8 - Orbit

View from above orbital plane
View from above orbital plane
View from above satellite
View from above satellite

Ground track
Ground track

The orbit data is extracted from the following two-line orbital elements,

1 39084U 13008A   16183.80630457  .00000060  00000-0  23340-4 0  9990
2 39084  98.2232 253.3240 0001276  95.7084 264.4259 14.57102770180038
Epoch (UTC): 01 July 2016 19:21:04
Eccentricity: 0.0001276
inclination: 98.2232°
perigee height: 701 km
apogee height: 703 km
right ascension of ascending node: 253.3240°
argument of perigee: 95.7084°
revolutions per day: 14.57102770
mean anomaly at epoch: 264.4259°
orbit number at epoch: 18003

The dashed part of the orbit path shows where the satellite is in the earth's shadow,  

DLR